Probability
0 0 0 0 0 0 0 0 3 3 0 0 0 0 0 0 0 0 0 0 0 0 0 0 0 0 0 0 0 0 0 0 0 0 0 0 0 0 0 0 0 0 0
0 0 0 0 0 0 0 0 0 3 0 0 0 0 0 0 0 0 0 0 0 0 0 0 0 0 0 0 0 0 0 0 0 0 0 0 0 0 0 0 0 0 0
0 0 0 0 0 0 0 0 0 0 0 0 0 0 0 0 0 0 0 0 0 0 0 0 0 0 0 0 0 0 0 0 0 0 0 0 0 0 0 0 0 0 0
0 0 0 0 0 0 0 0 0 0 0 0 0 0 0 0 0 0 0 0 0 0 0 0 0 0 0 0 0 0 0 0 0 0 0 0 0 0 0 0 0 0 0
0 0 0 0 0 0 0 0 0 0 0 0 0 0 0 0 0 0 0 0 0 0 0 0 0 0 0 0 0 0 0 0 0 0 0 0 0 0 0 0 0 0 0
0 0 0 0 0 0 0 0 0 0 0 0 0 0 0 0 0 0 0 0 0 0 0 0 0 0 0 0 0 0 0 0 0 0 0 0 0 0 0 0 0 0 0
0 0 0 0 0 0 0 0 0 0 0 0 0 0 0 0 0 0 0 0 0 0 0 0 0 0 0 0 0 0 0 0 0 0 0 0 0 0 0 0 0 0 0
0 0 0 0 0 0 0 0 0 0 0 0 0 0 0 0 0 0 0 0 0 0 0 0 0 0 0 0 0 0 0 0 0 0 0 0 0 0 0 0 0 0 0
0 0 0 0 0 0 0 0 0 0 0 0 0 0 0 0 0 0 0 0 0 0 0 0 0 0 0 0 0 0 0 0 0 0 0 0 0 0 0 0 0 0 0
0 0 0 0 0 0 0 0 0 0 0 0 0 0 0 0 0 0 0 0 0 0 0 0 0 0 0 0 0 0 0 0 0 0 0 0 0 0 0 0 0 0 0
0 0 0 0 0 0 0 0 0 0 0 0 0 0 0 0 0 0 0 0 0 0 0 0 0 0 0 0 0 0 0 0 0 0 0 0 0 0 0 0 0 0 0
0 0 0 0 0 0 0 0 0 0 0 0 0 0 0 0 0 0 0 0 0 0 0 0 0 0 0 0 0 0 0 0 0 0 0 0 0 0 0 0 0 0 0
0 0 0 0 0 0 0 0 0 0 0 0 0 0 0 0 0 0 0 0 0 0 0 0 0 0 0 0 0 0 0 0 0 0 0 0 0 0 0 0 0 0 0
0 0 0 0 0 0 0 0 0 0 0 0 0 0 0 0 0 0 0 0 0 0 0 0 0 0 0 0 0 0 0 0 0 0 0 0 0 0 0 0 0 0 0
0 0 0 0 0 0 0 0 0 0 0 0 0 0 0 0 0 0 0 0 0 0 0 0 0 0 0 0 0 0 0 0 0 0 0 0 0 0 0 0 0 0 0
0 0 0 0 0 0 0 0 0 0 0 0 0 0 0 0 0 0 0 0 0 0 0 0 0 0 0 0 0 0 0 0 0 0 0 0 0 0 0 0 0 0 0
0 0 0 0 0 0 0 0 0 0 0 0 0 0 0 0 0 0 0 0 0 0 0 0 0 0 0 0 0 0 0 0 0 0 0 0 0 0 0 0 0 0 0
0 0 0 0 0 0 0 0 0 0 0 0 0 0 0 0 0 0 0 0 0 0 0 0 0 0 0 0 0 0 0 0 0 0 0 0 0 0 0 0 0 0 0
0 0 0 0 0 0 0 0 0 0 0 0 0 0 0 0 0 0 0 0 0 0 0 0 0 0 0 0 0 0 0 0 0 0 0 0 0 0 0 0 0 0 0
0 0 0 0 0 0 0 0 0 0 0 0 0 0 0 0 0 0 0 0 0 0 0 0 0 0 0 0 0 0 0 0 0 0 0 0 0 0 0 0 0 0 0
0 0 0 0 0 0 0 0 0 0 0 0 0 0 0 0 0 0 0 0 0 0 0 0 0 0 0 0 0 0 0 0 0 0 0 0 0 0 0 0 0 0 0
0 0 0 0 0 0 0 0 0 0 0 0 0 0 0 0 0 0 0 0 0 0 0 0 0 0 0 0 0 0 0 0 0 0 0 0 0 0 0 0 0 0 0
0 0 0 0 0 0 0 0 0 0 0 0 0 0 0 0 0 0 0 0 0 0 0 0 0 0 0 0 0 0 0 0 0 0 0 0 0 0 0 0 0 0 0
0 0 0 0 0 0 0 0 0 0 0 0 0 0 0 0 0 0 0 0 0 0 0 0 0 0 0 0 0 0 0 0 0 0 0 0 0 0 0 0 0 0 0
0 0 0 0 0 0 0 0 0 0 0 0 0 0 0 0 0 0 0 0 0 0 0 0 0 0 0 0 0 0 0 0 0 0 0 0 0 0 0 0 0 0 0
0 0 0 0 0 0 0 0 0 0 0 0 0 0 0 0 0 0 0 0 0 0 0 0 0 0 0 0 0 0 0 0 0 0 0 0 0 0 0 0 0 0 0
Height
5801 5801 5800 5799 5798 5798 5797 5797 5796 5796 5795 5795 5795 5795 5796 5796 5796 5796 5796 5797 5797 5797 5798 5798 5799 5800 5800 5801 5801 5801 5802 5802 5803 5804 5803 5804 5804 5804 5804 5804 5804 5804 5804
5796 5795 5795 5794 5793 5793 5792 5791 5791 5790 5790 5790 5790 5790 5790 5790 5791 5791 5791 5791 5792 5792 5793 5793 5794 5795 5795 5796 5797 5797 5798 5798 5799 5799 5799 5800 5800 5800 5800 5800 5800 5800 5800
5790 5789 5789 5788 5788 5787 5786 5786 5785 5784 5784 5784 5784 5784 5784 5784 5785 5785 5785 5785 5786 5787 5788 5788 5789 5789 5790 5791 5792 5792 5793 5793 5794 5794 5795 5795 5795 5795 5796 5796 5796 5796 5796
5784 5784 5783 5782 5782 5781 5780 5780 5779 5778 5777 5777 5777 5777 5778 5778 5779 5779 5780 5780 5781 5781 5782 5782 5783 5784 5785 5786 5786 5787 5787 5788 5788 5789 5790 5790 5790 5791 5791 5791 5792 5792 5792
5778 5777 5777 5776 5775 5775 5774 5773 5773 5772 5771 5771 5771 5771 5771 5772 5772 5773 5773 5774 5775 5775 5776 5776 5777 5778 5779 5780 5780 5781 5782 5782 5783 5783 5784 5785 5785 5786 5786 5786 5787 5786 5786
5772 5771 5770 5770 5769 5768 5768 5767 5766 5766 5765 5765 5765 5765 5765 5765 5766 5766 5767 5767 5768 5769 5769 5770 5770 5771 5772 5773 5774 5775 5776 5776 5777 5778 5778 5779 5780 5780 5781 5781 5781 5781 5781
5765 5764 5764 5763 5762 5762 5761 5760 5760 5759 5759 5758 5758 5758 5759 5759 5759 5759 5760 5760 5761 5762 5762 5763 5763 5764 5765 5766 5767 5768 5769 5770 5771 5772 5772 5773 5774 5774 5774 5775 5775 5775 5775
5759 5758 5758 5757 5756 5755 5755 5754 5753 5753 5752 5752 5752 5751 5752 5752 5752 5752 5752 5753 5754 5754 5754 5755 5756 5756 5757 5758 5759 5760 5761 5762 5763 5765 5766 5766 5767 5767 5768 5768 5768 5768 5768
5753 5752 5751 5750 5750 5749 5749 5748 5747 5746 5746 5745 5745 5744 5744 5744 5744 5745 5745 5745 5746 5746 5747 5747 5748 5749 5749 5750 5751 5752 5753 5754 5755 5756 5757 5758 5759 5759 5760 5761 5761 5761 5762
5746 5745 5744 5744 5743 5742 5742 5741 5740 5739 5739 5738 5738 5737 5737 5737 5737 5737 5737 5737 5738 5738 5739 5739 5740 5740 5741 5741 5743 5744 5745 5746 5747 5748 5749 5750 5751 5751 5752 5753 5753 5754 5754
5739 5738 5737 5737 5736 5735 5734 5734 5733 5732 5731 5731 5730 5730 5729 5729 5729 5729 5729 5729 5729 5729 5730 5730 5731 5731 5732 5732 5733 5735 5736 5737 5738 5739 5740 5741 5742 5743 5743 5744 5745 5746 5746
5731 5731 5730 5729 5728 5727 5726 5725 5725 5724 5723 5722 5722 5722 5721 5721 5720 5720 5720 5720 5720 5721 5721 5721 5722 5722 5722 5723 5724 5725 5726 5727 5728 5730 5731 5732 5733 5734 5734 5735 5736 5736 5737
5723 5722 5721 5720 5719 5718 5717 5716 5716 5715 5714 5714 5713 5713 5713 5712 5712 5711 5711 5711 5711 5711 5712 5712 5712 5712 5713 5713 5714 5715 5716 5717 5718 5720 5721 5722 5723 5723 5724 5725 5726 5726 5727
5715 5713 5712 5711 5710 5709 5708 5707 5706 5705 5705 5704 5704 5704 5703 5703 5702 5702 5702 5702 5702 5702 5702 5702 5702 5702 5703 5703 5704 5705 5706 5707 5708 5709 5710 5711 5712 5713 5713 5714 5715 5716 5717
5706 5704 5703 5702 5701 5699 5698 5697 5696 5696 5695 5694 5694 5694 5694 5693 5693 5692 5692 5692 5692 5692 5692 5692 5692 5692 5693 5693 5694 5695 5695 5696 5697 5698 5698 5699 5700 5702 5703 5703 5704 5705 5707
5697 5695 5694 5693 5691 5690 5689 5687 5686 5686 5685 5684 5684 5683 5683 5683 5683 5682 5682 5682 5682 5681 5682 5682 5682 5682 5682 5683 5683 5684 5685 5685 5686 5686 5687 5688 5689 5690 5691 5692 5693 5694 5695
5688 5686 5684 5683 5682 5680 5679 5678 5677 5676 5675 5675 5674 5673 5673 5672 5672 5672 5672 5671 5671 5671 5671 5671 5672 5672 5672 5672 5672 5673 5674 5674 5675 5676 5676 5677 5678 5679 5680 5681 5682 5684 5685
5678 5676 5675 5673 5672 5671 5670 5669 5668 5667 5666 5665 5664 5663 5663 5662 5662 5661 5661 5661 5661 5661 5661 5661 5661 5661 5661 5661 5661 5662 5662 5663 5664 5664 5665 5666 5667 5668 5669 5670 5671 5673 5674
5669 5667 5666 5664 5663 5661 5660 5659 5658 5657 5656 5655 5654 5654 5652 5651 5651 5650 5650 5650 5650 5650 5650 5650 5650 5650 5650 5650 5651 5651 5651 5652 5653 5653 5654 5655 5655 5657 5658 5659 5660 5661 5662
5660 5658 5656 5655 5653 5652 5651 5650 5648 5647 5646 5645 5644 5643 5642 5641 5641 5640 5639 5639 5639 5639 5639 5639 5639 5639 5639 5639 5639 5640 5640 5641 5641 5642 5643 5644 5644 5645 5647 5648 5649 5650 5651
5651 5649 5647 5646 5644 5643 5642 5641 5639 5638 5636 5635 5634 5633 5632 5631 5630 5629 5629 5628 5628 5628 5628 5628 5628 5628 5628 5628 5628 5629 5629 5630 5630 5631 5632 5632 5633 5634 5635 5636 5637 5638 5640
5642 5640 5638 5637 5636 5634 5633 5631 5630 5628 5627 5626 5624 5623 5621 5620 5619 5618 5618 5617 5617 5616 5616 5616 5616 5616 5617 5617 5617 5618 5618 5619 5619 5620 5620 5621 5622 5623 5624 5625 5626 5627 5628
5632 5631 5629 5628 5626 5625 5623 5622 5620 5619 5617 5616 5614 5612 5611 5610 5609 5608 5607 5607 5606 5606 5606 5606 5606 5606 5606 5606 5606 5607 5607 5608 5608 5608 5609 5609 5610 5611 5612 5613 5614 5615 5616
5622 5621 5619 5618 5617 5615 5614 5612 5610 5609 5607 5606 5604 5602 5601 5600 5599 5598 5597 5596 5596 5595 5595 5595 5595 5595 5595 5595 5595 5595 5596 5596 5596 5597 5597 5597 5598 5599 5600 5601 5602 5603 5604
5612 5611 5610 5608 5607 5605 5604 5602 5600 5599 5597 5596 5594 5593 5592 5590 5589 5588 5588 5586 5586 5585 5585 5584 5584 5584 5584 5583 5583 5583 5584 5584 5584 5584 5585 5585 5586 5587 5588 5589 5590 5591 5592
5603 5602 5601 5599 5597 5596 5594 5592 5591 5589 5587 5586 5584 5583 5582 5581 5580 5578 5577 5576 5575 5574 5574 5573 5573 5572 5572 5572 5571 5571 5571 5571 5572 5572 5572 5573 5574 5575 5575 5576 5577 5578 5579
Wind_Speed
18 17 17 18 17 17 17 17 18 18 17 17 17 17 16 16 16 16 16 16 16 15 15 16 16 16 16 16 15 15 15 14 14 14 14 13 13 13 13 13 12 12 12
19 18 18 18 18 18 18 18 18 19 18 18 18 18 18 18 18 17 17 17 17 17 16 16 17 17 17 16 16 16 16 16 16 15 16 15 15 15 14 14 14 14 14
20 20 19 18 19 19 19 19 19 20 20 20 20 19 19 19 19 19 18 18 18 18 18 17 17 17 18 18 18 18 17 17 17 17 17 17 16 16 15 15 15 15 15
19 20 20 19 19 19 19 19 20 20 20 20 20 20 20 20 20 20 20 19 19 19 19 19 19 19 19 19 19 19 19 18 18 18 18 17 17 16 16 15 15 16 16
20 20 19 19 19 19 20 20 20 20 20 21 21 21 21 20 20 21 20 20 20 20 20 20 20 20 20 20 20 20 20 20 19 19 18 18 18 18 18 17 17 18 17
20 20 20 19 19 20 20 21 20 20 21 21 22 21 21 21 21 21 21 21 21 21 21 21 21 22 21 22 22 21 21 21 21 20 20 19 19 19 19 19 19 19 19
21 20 20 20 20 20 20 20 21 21 21 20 21 22 21 21 22 22 22 22 22 22 22 22 22 23 23 23 23 23 23 23 22 22 22 21 20 20 20 20 20 20 20
21 21 21 21 21 21 21 21 21 21 21 21 22 22 22 22 22 23 23 23 23 23 24 24 24 24 24 25 24 24 24 24 24 24 23 23 22 22 22 22 22 22 22
21 21 22 21 21 21 22 22 22 22 22 22 22 22 22 23 23 24 25 25 25 25 25 25 25 25 25 25 25 26 26 26 26 26 25 25 25 25 25 24 24 23 23
22 22 23 23 23 23 23 24 24 24 24 23 23 23 23 23 24 25 26 26 27 27 26 26 26 26 27 26 26 27 27 27 27 27 27 26 26 26 26 26 26 25 24
23 23 24 25 25 25 25 25 25 25 25 25 24 24 24 24 25 25 26 26 27 28 28 28 28 28 28 28 27 27 28 28 29 28 28 28 27 27 27 27 27 27 26
24 24 25 26 27 27 27 27 27 26 27 27 26 25 25 26 26 27 27 27 27 28 28 29 29 29 29 29 29 28 28 29 30 30 29 29 29 29 29 29 29 29 28
25 25 26 26 27 28 29 29 29 28 28 28 28 28 28 28 27 28 28 28 27 28 28 29 30 30 31 31 30 30 30 30 30 31 31 31 31 31 31 30 30 30 30
26 26 27 27 28 29 29 29 29 29 29 29 29 29 29 29 29 29 28 28 29 29 29 29 29 30 31 31 31 31 31 32 32 32 32 32 32 32 32 31 31 31 31
27 27 28 28 29 29 29 29 29 29 29 29 29 30 30 30 29 30 29 29 29 29 29 29 29 30 31 31 31 31 31 31 32 33 34 34 34 34 34 34 33 33 32
26 27 28 28 28 29 29 29 29 29 29 29 29 30 30 30 30 31 31 30 30 30 30 29 29 30 31 31 32 32 32 32 32 33 34 34 35 35 35 35 34 33 32
27 27 28 28 28 28 28 28 29 29 29 29 29 30 30 30 31 31 31 31 31 30 30 29 29 29 29 31 32 32 32 33 33 34 34 34 34 35 35 35 35 34 34
27 27 28 28 28 28 28 28 28 28 28 29 30 30 30 31 31 31 32 32 31 30 30 30 30 30 30 30 31 32 32 32 33 34 34 34 35 34 34 34 34 34 34
27 28 28 28 27 28 28 28 28 28 28 28 29 30 30 31 31 31 31 31 31 30 30 30 31 31 31 31 31 32 32 32 33 33 33 34 34 35 34 34 34 34 34
28 28 28 28 27 27 27 27 28 28 28 28 29 29 29 30 31 31 31 31 31 31 31 31 31 31 31 31 32 32 32 33 33 33 33 33 33 34 34 34 35 34 34
28 28 28 28 27 27 27 27 27 27 27 27 28 29 29 29 30 30 31 31 31 31 31 31 31 31 31 31 31 31 31 32 33 33 33 33 33 33 33 34 34 35 35
29 29 28 28 27 27 27 27 27 27 27 28 28 28 29 30 30 30 30 30 30 30 30 30 30 31 31 32 32 31 31 32 33 34 34 34 34 34 33 34 35 35 35
29 29 29 28 28 28 28 28 28 28 28 28 29 28 27 27 28 28 28 28 29 29 30 30 29 30 31 32 32 32 32 32 33 33 34 34 35 34 35 35 35 36 35
28 28 28 28 28 28 29 29 29 29 28 28 28 28 27 27 27 27 28 28 28 29 30 30 29 30 31 31 31 32 32 33 33 34 34 35 35 35 35 36 36 37 36
27 27 27 27 27 27 28 28 28 28 28 28 28 28 28 27 27 27 28 28 29 29 30 30 30 31 31 32 32 31 32 33 33 33 34 35 36 36 36 36 37 37 38
27 26 27 27 27 27 27 27 27 28 27 27 27 27 28 28 28 28 28 29 29 30 30 31 31 32 33 33 33 33 33 34 33 34 34 35 36 36 36 36 37 37 37
Wind_Direction
284 283 282 281 278 276 276 275 274 272 269 268 267 264 263 264 264 265 264 263 263 261 259 260 260 258 257 256 254 253 254 254 255 257 257 259 261 263 262 260 261 262 264
281 281 281 280 278 276 275 274 273 271 268 268 267 264 263 263 264 265 264 262 262 259 260 261 261 257 255 255 254 253 253 255 255 257 257 258 261 263 261 260 262 264 264
281 280 279 279 278 275 276 276 274 273 270 269 266 263 262 262 262 264 263 262 262 260 259 259 259 257 255 254 253 253 255 256 256 258 257 257 258 259 258 260 261 262 263
282 280 278 278 278 276 275 275 274 273 272 269 267 266 263 262 262 264 264 262 261 260 258 258 258 257 256 254 253 254 254 254 254 256 257 257 257 257 259 260 260 262 262
283 280 279 277 278 277 275 275 274 274 272 269 267 266 265 264 264 264 263 261 260 260 259 258 258 258 258 255 254 254 253 254 255 255 256 258 258 258 259 260 262 263 262
281 279 279 278 278 278 277 275 273 274 272 268 267 267 266 266 265 263 262 261 260 261 261 259 259 259 258 256 254 253 253 254 255 255 256 258 258 258 257 259 261 261 261
282 279 276 277 277 276 277 277 274 273 273 270 268 266 265 265 264 261 261 261 262 262 261 261 260 260 259 260 258 254 253 253 254 256 258 259 259 258 257 258 261 261 261
282 280 277 276 277 277 277 277 274 274 273 270 269 267 265 265 264 261 260 261 263 263 262 261 260 260 260 260 258 256 256 254 253 255 257 259 259 259 258 259 261 261 262
281 280 278 277 276 276 276 277 276 275 274 270 269 268 266 266 266 263 262 263 264 263 263 263 263 261 262 260 258 257 257 256 256 255 256 257 257 258 258 259 261 262 263
280 280 278 276 275 274 275 275 275 274 274 272 270 269 268 267 266 265 265 264 263 262 262 264 265 263 262 261 259 257 256 257 256 256 256 256 256 258 259 259 259 261 262
280 278 277 275 274 274 274 275 275 275 273 272 271 269 268 268 267 268 268 267 265 264 264 265 265 263 262 261 262 260 258 256 255 255 256 257 257 258 260 260 260 260 261
279 278 277 276 275 274 275 275 275 274 273 271 270 269 270 269 269 269 268 268 267 266 265 265 264 263 263 261 262 262 260 257 256 256 256 257 258 258 259 260 260 260 259
279 278 277 277 278 276 276 275 274 272 272 271 270 269 270 271 270 269 269 269 269 269 268 266 264 264 263 262 261 262 261 260 258 257 257 257 257 258 259 259 259 260 260
280 279 278 277 278 277 276 275 274 272 271 272 270 269 270 271 271 270 270 270 270 271 270 268 266 265 265 263 261 261 262 262 260 259 258 258 258 258 258 259 259 259 258
281 280 279 279 278 278 277 276 275 273 272 271 271 270 270 270 270 270 270 270 271 271 270 270 269 267 266 264 262 261 263 264 262 261 260 259 260 259 258 259 259 259 258
282 281 281 280 280 280 278 276 276 275 274 272 271 272 271 270 269 269 270 270 270 270 270 271 270 269 267 265 264 262 263 264 263 262 262 261 260 260 258 258 259 258 258
283 283 282 281 281 281 280 277 276 276 275 273 272 273 272 272 271 270 270 269 269 270 270 270 269 269 268 266 264 262 262 262 262 263 263 261 260 260 259 258 258 258 258
284 285 283 281 281 281 280 279 276 275 275 274 273 273 273 272 271 271 270 268 268 269 269 269 269 269 269 267 265 263 263 262 262 263 263 262 260 259 258 257 258 259 257
284 286 285 282 282 281 281 280 277 276 276 275 274 274 273 272 270 271 270 268 268 268 268 269 269 268 268 267 265 264 263 262 263 264 263 261 259 259 258 258 258 258 258
285 286 284 281 281 281 281 280 280 280 279 278 276 274 273 272 271 270 269 269 268 267 267 268 267 267 267 266 265 265 264 263 263 263 262 262 260 259 258 258 257 258 259
285 286 284 282 281 280 281 282 282 282 282 281 279 276 275 274 272 271 269 269 269 268 267 267 266 266 265 265 265 264 264 263 262 262 262 261 260 259 259 258 257 257 257
285 285 284 284 283 282 282 282 282 281 282 282 282 280 277 275 274 272 271 270 268 267 267 267 267 266 265 265 265 264 264 264 262 262 262 261 260 259 259 259 258 257 257
285 285 284 284 283 282 282 282 282 281 281 282 281 280 278 277 275 274 273 272 268 267 267 267 267 267 266 266 267 265 264 263 263 263 262 260 259 259 259 259 259 258 258
286 285 285 284 283 283 283 282 282 281 280 280 280 280 279 278 277 277 275 274 271 268 267 267 268 267 266 265 266 264 263 262 262 262 262 261 260 259 259 259 259 258 259
285 285 285 284 284 284 284 283 283 283 282 280 280 279 278 278 278 278 277 276 274 272 270 269 269 269 267 266 266 265 264 263 262 262 262 261 260 260 260 259 259 259 259
285 284 284 284 284 284 285 285 284 285 284 283 281 279 278 277 277 278 278 278 277 275 273 272 271 270 268 267 267 267 265 264 263 263 263 263 261 261 260 260 260 259 258